Wind_Speed
13 16 18 6 12 11 13 13 12 12 13 18 17 15 13 18 17 17 18 23 24 27 32 35 35 35 36 37 40 37 27 20 14 16 18 19 20 23 27 32 40 42 44 48
19 20 9 7 10 12 17 20 17 19 17 19 19 22 21 26 26 26 26 23 26 31 34 35 36 38 39 41 40 32 24 21 17 18 21 25 30 35 41 49 50 48 51 53
23 7 16 14 14 17 15 18 20 18 19 20 22 24 25 25 28 32 32 30 31 36 36 37 37 39 41 39 34 25 23 22 19 21 27 35 41 44 47 51 52 50 49 50
20 21 22 17 20 15 22 13 16 17 18 20 25 8 27 28 28 29 28 28 28 32 37 39 38 41 41 37 31 28 26 21 22 32 38 41 46 50 53 52 47 47 48 51
19 13 13 20 21 14 23 17 16 18 21 19 25 8 8 27 28 25 25 25 31 34 37 40 41 42 39 33 28 28 25 25 32 39 43 48 49 51 48 45 46 45 44 46
27 23 16 20 16 17 20 17 16 20 18 4 13 8 14 21 26 24 26 29 34 37 39 40 40 39 34 29 28 26 27 32 39 44 49 48 47 46 44 45 44 43 41 40
24 27 24 23 22 20 21 17 5 4 1 5 7 14 19 20 25 33 33 35 37 39 40 37 33 30 28 27 26 29 32 38 43 46 48 47 46 45 45 45 45 41 35 31
6 5 9 12 16 19 19 15 8 5 4 6 24 9 6 27 22 27 34 31 35 37 37 37 35 30 30 34 36 34 40 43 45 47 47 43 42 41 41 42 35 27 21 15
6 8 11 11 15 17 11 8 8 5 7 2 7 11 18 21 27 29 29 34 34 36 38 35 33 34 32 35 36 38 41 41 44 45 41 37 36 37 39 34 30 20 20 16
16 19 17 12 12 10 10 8 5 5 2 5 6 16 18 15 33 28 36 38 35 35 40 38 35 33 35 39 36 38 37 41 40 41 36 34 34 34 33 30 29 22 21 21
30 27 19 16 13 11 9 7 11 7 6 3 5 5 8 36 31 33 36 37 37 38 42 40 37 40 39 38 34 42 36 38 38 37 34 34 33 31 30 31 28 24 24 24
18 15 20 23 20 16 20 26 19 12 5 10 16 18 18 32 32 39 43 39 42 43 44 41 41 48 41 34 40 32 36 34 35 34 33 34 32 32 31 32 31 26 23 23
21 10 7 5 9 9 15 16 15 21 21 22 10 22 38 52 52 47 41 38 37 40 43 45 45 42 38 39 32 32 36 36 34 32 33 32 33 33 32 32 29 30 27 27
22 21 24 16 12 13 15 20 20 22 24 34 34 58 53 43 49 43 37 28 34 38 44 44 38 36 37 32 31 34 38 35 33 34 34 33 35 35 34 33 31 30 31 30
23 24 31 23 19 22 25 29 29 30 37 38 54 53 44 40 39 36 37 31 34 35 31 29 29 37 34 30 33 39 42 37 36 36 35 35 35 35 35 34 33 30 32 32
29 31 36 28 28 26 32 35 34 38 41 44 44 43 42 38 36 33 34 26 26 28 31 29 30 30 29 33 38 41 37 37 38 39 38 37 37 36 35 34 34 33 30 35
23 21 23 41 26 22 33 36 34 35 38 30 36 41 40 35 33 33 26 23 24 28 29 29 27 28 33 37 38 39 39 42 42 41 41 42 40 38 37 36 35 35 34 33
38 34 29 27 19 13 33 27 21 24 20 30 36 41 37 35 36 30 22 26 27 27 27 28 31 35 37 37 38 39 40 42 42 39 36 37 39 38 38 37 36 34 34 33
38 37 23 11 20 36 44 28 29 31 31 33 33 30 33 33 27 20 26 32 30 27 30 33 34 35 35 34 35 40 44 43 42 41 35 32 34 37 38 35 35 34 34 33
25 28 31 24 9 7 15 14 22 29 30 28 27 30 27 21 25 29 30 27 27 28 31 35 36 35 34 35 38 40 41 43 44 40 40 43 41 36 39 36 31 34 34 35
21 21 31 35 19 22 28 29 26 14 20 22 21 19 21 26 26 28 28 30 33 36 38 41 39 40 43 44 44 45 45 49 45 47 45 49 53 43 40 40 39 34 35 35
33 24 24 23 15 16 27 25 22 26 32 26 19 23 23 27 30 30 33 36 39 41 41 40 41 41 43 45 46 51 52 51 49 55 50 46 47 46 41 40 40 33 33 35
30 36 31 21 22 28 28 30 36 33 20 22 23 24 28 29 30 35 38 40 41 41 43 43 43 44 44 41 47 46 47 51 51 45 50 45 44 51 41 38 36 32 32 33
40 40 33 32 33 34 33 36 33 30 23 21 23 27 27 29 36 39 39 41 44 47 47 49 50 50 50 52 51 52 50 49 50 46 50 53 36 39 40 38 36 34 33 30
45 35 29 33 34 33 36 34 27 24 21 22 25 27 32 37 37 40 44 46 49 51 51 48 45 43 42 43 45 48 51 52 50 45 46 46 43 46 37 43 39 38 37 34
35 36 33 34 32 31 29 28 21 18 21 24 29 33 36 38 41 44 47 48 46 42 39 37 38 38 38 37 39 40 42 43 44 41 40 37 30 28 33 40 39 40 39 37
Wind_Direction
247 247 250 259 244 245 282 279 275 284 310 296 294 288 270 291 288 281 266 268 263 257 255 256 260 264 269 273 270 270 276 274 270 273 275 276 281 285 291 295 295 286 284 282
235 247 199 232 253 260 272 277 273 295 283 283 290 283 277 278 291 294 289 277 274 262 258 260 259 259 259 261 261 265 266 256 259 270 276 279 285 294 298 300 297 291 287 284
239 253 200 234 250 270 260 266 277 286 293 296 298 294 286 292 289 285 283 281 271 270 266 261 259 260 262 261 262 264 262 257 268 282 291 298 302 307 305 301 296 292 289 285
249 258 244 244 253 259 257 276 282 285 295 304 300 284 300 297 292 292 288 281 271 264 258 253 254 257 254 257 262 269 268 269 283 304 312 312 315 313 308 304 299 294 289 286
234 240 225 240 249 241 260 277 279 280 294 297 300 296 305 313 302 296 287 289 283 270 257 251 251 254 258 264 272 280 283 291 305 315 313 315 316 311 305 300 297 293 290 287
245 239 237 242 245 256 276 274 268 281 282 277 300 293 300 312 301 295 298 294 289 270 260 252 248 253 262 273 281 282 286 299 308 311 314 317 313 308 305 303 301 301 297 291
258 256 259 253 262 260 258 257 283 294 260 225 312 311 286 322 309 299 295 290 282 277 269 263 262 264 275 287 290 290 297 306 312 314 315 315 311 310 311 310 307 303 300 293
290 279 228 242 248 257 245 238 225 228 224 257 288 255 279 322 327 321 313 300 277 273 276 277 276 286 297 296 292 297 309 314 314 314 314 308 306 309 314 313 312 307 305 287
256 251 262 250 258 250 245 202 228 264 267 294 245 254 293 312 332 324 320 308 290 277 270 274 282 281 281 292 295 300 305 307 310 311 308 307 313 318 320 318 315 307 316 308
255 261 256 246 247 234 220 217 246 247 278 260 262 275 280 299 322 318 319 304 285 278 266 262 267 270 277 281 290 301 302 306 309 314 307 311 314 315 320 318 314 303 299 299
246 253 258 249 232 259 252 254 299 269 230 208 284 243 283 304 316 312 313 298 287 278 268 264 267 272 276 287 301 306 299 306 311 309 307 309 312 313 313 314 312 300 290 287
258 261 266 260 255 242 281 288 258 239 241 237 270 278 302 312 307 305 311 298 290 277 267 262 273 270 287 292 295 297 305 309 306 305 307 308 311 313 311 311 306 293 285 277
266 256 294 250 240 267 246 251 267 256 257 262 269 281 296 312 305 308 306 297 286 274 262 263 268 281 286 290 298 303 311 306 301 302 303 307 310 312 311 308 302 285 276 277
281 270 252 242 267 289 283 287 279 268 262 279 275 289 304 312 311 307 305 305 290 268 257 269 285 290 288 295 305 302 305 297 297 300 304 306 306 307 309 306 300 293 280 273
273 265 287 271 278 286 289 289 279 269 280 276 284 291 305 311 304 305 303 303 294 279 281 309 305 285 292 306 301 297 300 295 299 302 301 302 303 301 301 301 300 295 276 276
283 270 282 276 291 287 288 283 279 274 280 281 288 291 302 301 304 303 304 304 299 309 308 300 294 305 307 299 295 297 298 296 296 298 297 297 297 295 294 296 295 289 290 279
273 267 280 285 283 286 280 284 284 278 283 283 286 294 290 294 295 297 298 304 306 301 301 299 303 296 290 291 293 293 295 297 298 298 296 295 293 291 290 290 290 289 286 284
270 272 285 267 277 266 283 289 278 265 265 285 284 282 282 286 293 296 302 306 302 297 292 286 285 288 291 292 294 295 295 298 301 302 303 299 295 291 287 285 284 286 285 281
271 270 253 252 271 278 277 280 266 259 281 285 281 272 275 287 293 298 300 301 300 293 291 293 296 299 301 298 298 300 304 307 307 306 304 304 303 295 285 281 283 283 283 278
262 258 248 255 240 260 279 271 278 287 279 282 272 270 280 281 289 294 294 292 291 293 296 297 297 299 302 302 302 302 300 299 300 297 299 300 291 296 289 285 290 286 281 277
264 256 245 250 252 264 274 278 279 268 290 275 275 277 283 289 293 294 293 297 300 302 303 305 302 301 299 298 293 293 293 294 294 293 291 296 289 288 286 289 285 291 284 277
266 266 246 235 244 268 267 266 260 271 284 275 271 280 289 300 305 303 305 305 304 304 304 302 300 300 299 297 293 288 284 283 289 292 284 286 290 284 281 282 282 284 291 283
247 250 254 250 262 268 269 274 279 281 265 276 293 304 307 306 305 305 303 302 303 304 302 301 300 297 292 285 288 289 293 296 297 292 285 284 280 271 269 279 281 284 288 284
260 263 257 263 268 278 279 281 274 271 284 297 299 303 303 303 303 301 302 304 303 304 304 304 301 297 292 292 292 293 293 291 298 295 286 296 298 279 260 273 277 279 280 289
273 267 265 271 290 283 281 272 272 279 295 295 297 299 301 302 303 305 307 308 310 309 308 307 306 305 306 305 302 299 298 300 301 296 294 296 296 294 297 272 272 279 281 280
268 278 285 287 289 286 280 274 278 292 291 294 297 300 301 304 307 310 313 311 309 311 314 318 324 325 325 322 319 315 312 309 304 302 298 299 290 277 273 263 265 267 270 271
Height
3147 3145 3145 3147 3145 3148 3147 3146 3141 3142 3142 3140 3139 3137 3137 3135 3136 3136 3134 3133 3133 3133 3134 3134 3134 3134 3134 3132 3132 3133 3133 3131 3129 3130 3128 3126 3125 3125 3124 3123 3119 3115 3112 3109
3144 3140 3144 3146 3146 3143 3144 3143 3141 3138 3138 3137 3135 3133 3133 3130 3130 3131 3130 3129 3128 3126 3126 3126 3127 3128 3128 3127 3126 3127 3127 3126 3125 3125 3124 3122 3120 3117 3114 3110 3106 3102 3099 3095
3138 3140 3139 3140 3141 3141 3138 3139 3139 3137 3134 3133 3131 3129 3128 3128 3125 3125 3124 3124 3123 3121 3119 3119 3120 3120 3120 3120 3120 3121 3120 3120 3120 3118 3115 3113 3111 3107 3102 3099 3093 3088 3083 3079
3135 3136 3136 3137 3137 3140 3135 3137 3137 3134 3132 3130 3127 3124 3124 3121 3118 3116 3115 3113 3113 3113 3112 3113 3113 3113 3113 3113 3114 3114 3113 3113 3111 3108 3105 3101 3096 3092 3090 3085 3081 3077 3073 3066
3132 3131 3131 3131 3132 3134 3134 3133 3132 3133 3130 3127 3122 3123 3118 3115 3113 3111 3109 3108 3106 3105 3105 3107 3108 3108 3107 3107 3107 3106 3105 3103 3099 3096 3094 3090 3086 3083 3079 3075 3070 3066 3061 3055
3127 3129 3128 3127 3130 3132 3132 3131 3129 3128 3125 3125 3122 3122 3115 3114 3111 3108 3106 3104 3101 3098 3098 3098 3100 3102 3102 3103 3102 3101 3099 3096 3093 3089 3085 3080 3076 3073 3068 3063 3056 3051 3047 3043
3124 3123 3124 3125 3126 3126 3128 3128 3127 3125 3123 3122 3121 3119 3113 3112 3110 3105 3102 3099 3095 3093 3092 3093 3096 3097 3098 3097 3096 3094 3091 3089 3084 3079 3075 3070 3065 3060 3054 3048 3044 3041 3038 3031
3122 3121 3120 3121 3120 3122 3123 3124 3124 3124 3123 3117 3118 3113 3108 3108 3105 3102 3098 3094 3091 3089 3089 3089 3090 3091 3091 3091 3089 3085 3082 3078 3074 3070 3066 3062 3058 3053 3048 3042 3036 3031 3029 3027
3121 3119 3117 3119 3117 3120 3120 3119 3121 3119 3116 3116 3111 3108 3105 3103 3099 3097 3094 3092 3089 3087 3086 3087 3088 3087 3085 3084 3081 3080 3077 3072 3069 3065 3060 3054 3049 3043 3038 3032 3028 3024 3020 3017
3119 3117 3116 3116 3115 3116 3117 3118 3118 3117 3116 3114 3107 3104 3101 3099 3097 3093 3091 3089 3086 3083 3083 3082 3084 3082 3080 3077 3076 3073 3070 3065 3061 3056 3050 3045 3041 3037 3032 3026 3021 3017 3015 3013
3115 3114 3113 3113 3114 3115 3115 3116 3117 3115 3113 3111 3107 3097 3098 3094 3091 3089 3087 3085 3081 3080 3078 3076 3076 3075 3073 3070 3067 3066 3062 3058 3052 3047 3042 3038 3034 3029 3025 3020 3015 3012 3010 3008
3111 3110 3107 3109 3109 3111 3113 3111 3113 3111 3110 3107 3100 3087 3092 3089 3084 3082 3079 3077 3075 3072 3071 3069 3068 3065 3065 3063 3061 3059 3055 3049 3044 3039 3034 3030 3027 3022 3018 3014 3010 3007 3004 3002
3106 3107 3107 3106 3107 3105 3107 3107 3107 3105 3105 3100 3097 3083 3084 3082 3077 3075 3069 3066 3066 3063 3062 3059 3058 3057 3057 3056 3053 3050 3044 3039 3035 3031 3028 3024 3019 3015 3012 3007 3004 3001 2999 2995
3102 3102 3104 3103 3102 3102 3103 3102 3102 3101 3098 3093 3089 3070 3079 3076 3069 3064 3061 3057 3057 3055 3052 3051 3051 3049 3049 3047 3043 3040 3035 3031 3028 3024 3019 3015 3011 3007 3003 3001 2997 2994 2991 2989
3099 3097 3098 3093 3096 3096 3096 3095 3095 3093 3091 3088 3075 3074 3068 3068 3062 3058 3055 3051 3049 3047 3045 3045 3044 3044 3042 3037 3035 3032 3027 3023 3019 3015 3011 3007 3003 3000 2997 2994 2989 2986 2984 2982
3092 3090 3091 3089 3091 3090 3086 3085 3084 3083 3080 3076 3070 3064 3065 3059 3055 3052 3049 3045 3044 3042 3040 3039 3038 3034 3032 3031 3028 3023 3018 3014 3010 3007 3003 3000 2996 2993 2989 2985 2982 2979 2976 2974
3087 3088 3086 3076 3082 3082 3073 3072 3072 3069 3068 3067 3065 3061 3055 3051 3048 3046 3044 3042 3041 3038 3035 3032 3030 3029 3027 3024 3020 3016 3011 3006 3002 2998 2994 2990 2986 2984 2980 2977 2973 2970 2968 2965
3080 3081 3082 3075 3075 3071 3061 3063 3062 3061 3061 3060 3057 3052 3049 3044 3043 3041 3039 3037 3034 3032 3030 3028 3025 3022 3019 3016 3012 3007 3002 2997 2993 2989 2985 2980 2976 2973 2970 2967 2963 2962 2959 2957
3071 3073 3075 3070 3067 3060 3057 3059 3057 3057 3053 3052 3048 3046 3042 3039 3037 3035 3033 3031 3028 3025 3023 3019 3017 3013 3009 3006 3002 2996 2991 2987 2982 2978 2977 2973 2968 2965 2961 2957 2954 2952 2951 2948
3063 3064 3068 3063 3061 3054 3046 3047 3048 3049 3042 3042 3041 3038 3036 3033 3031 3031 3028 3025 3022 3019 3015 3011 3008 3005 3001 2997 2993 2987 2982 2978 2974 2970 2965 2962 2958 2955 2953 2949 2945 2942 2940 2939
3058 3059 3058 3057 3051 3043 3040 3041 3041 3044 3042 3034 3034 3032 3029 3027 3026 3023 3021 3019 3016 3012 3007 3004 3000 2995 2990 2985 2980 2975 2970 2965 2961 2957 2954 2951 2947 2944 2941 2938 2935 2932 2930 2929
3053 3055 3048 3048 3045 3040 3035 3035 3039 3034 3030 3029 3028 3025 3023 3021 3019 3017 3014 3011 3007 3004 2999 2995 2991 2986 2980 2975 2970 2963 2957 2952 2949 2944 2939 2936 2934 2930 2928 2926 2923 2921 2919 2918
3043 3042 3041 3041 3035 3032 3031 3028 3026 3024 3023 3020 3020 3019 3016 3014 3011 3008 3006 3003 2998 2993 2988 2983 2977 2973 2969 2962 2957 2948 2942 2936 2933 2928 2924 2920 2918 2915 2913 2912 2911 2909 2908 2906
3032 3031 3030 3030 3028 3025 3025 3022 3018 3017 3016 3015 3014 3012 3010 3008 3005 3001 2997 2993 2988 2982 2976 2970 2965 2959 2954 2949 2943 2936 2929 2924 2920 2915 2911 2906 2902 2897 2897 2899 2900 2899 2898 2896
3025 3023 3022 3022 3021 3019 3017 3014 3013 3012 3011 3010 3009 3008 3005 3002 2998 2993 2987 2981 2975 2968 2963 2957 2951 2944 2937 2932 2927 2922 2916 2910 2905 2901 2897 2893 2891 2889 2887 2886 2887 2887 2887 2887
3018 3016 3017 3014 3014 3013 3010 3008 3008 3008 3007 3006 3005 3003 3000 2995 2991 2985 2978 2971 2965 2959 2952 2946 2939 2933 2927 2921 2916 2909 2903 2897 2891 2887 2885 2882 2878 2875 2875 2875 2875 2875 2875 2875